sat.trackr.live / text

‹ back to catalog

STARLINK-37161

NORAD 68565 · 2026-070Z

PAYLOAD ACTIVE UNKNOWN

§ Identity

Operator
Country
US
Launch date
2026-04-02
Launch site
AFETR
Launch vehicle
Mass (kg)
RCS (m²)

Purposes: comms

External: N2YO · Heavens-Above · Gunter

§ Orbital elements

Epoch: 2026-09-20T04:31:28.869312Z

Period
93.85 min
Inclination
53.1574°
Eccentricity
0.0000547
Mean motion
15.34413697 rev/d
Perigee alt
462.3 km
Apogee alt
463.0 km
Semi-major
6,840.8 km
B*
4.3899e-4
RAAN
174.8557°
Arg perigee
117.2035°
Mean anomaly
242.9024°
Rev number
2,639

§ Raw data

STARLINK-371611 68565U 26070Z   26263.18852858  .00014491  00000+0  43899-3 0  99932 68565  53.1574 174.8557 0000547 117.2035 242.9024 15.34413697 26395

JSON: /api/v1/satellites/68565 · /tle

For live sub-satellite position, see the globe view (requires WebGL).

§ Visibility from observer

Set your observer location to see the next 7 days of passes ≥ 10°. The values pass through the URL so the page stays shareable.

No JS? Fill the form by hand. The geolocation button needs JavaScript.